Weather History for Las Vegas, NM

Change the Weather History Date:

Friday, January 4, 2013

  Actual Average Record
Temperature  
Mean Temperature 17 °F -  
Max Temperature 33 °F 42 °F 67 °F (1956)
Min Temperature 1 °F 12 °F -14 °F (1971)
Degree Days  
Heating Degree Days 48    
Moisture  
Dew Point 4 °F    
Average Humidity 70    
Maximum Humidity 96    
Minimum Humidity 24    
Precipitation  
Precipitation 0.00 in - - ()
Sea Level Pressure  
Sea Level Pressure 30.22 in    
Wind  
Wind Speed 7 mph (SSW)    
Max Wind Speed 15 mph    
Max Gust Speed -    
Visibility 6 miles    
Events Fog    
Averages and records for this station are not official NWS values.
T = Trace of Precipitation, MM = Missing Value Source: NWS Daily Summary

Daily Weather History Graph

Daily Weather History Graph

Search for Another Location

Airport:

Trip Planner

Search our weather history database for the weather conditions in past years. The results will help you decide how hot, cold, wet, or windy it might be!

Date:

Astronomy

Jan. 04, 2013 Rise Set
Actual Time 7:10 AM MST 5:00 PM MST
Civil Twilight 6:42 AM MST 5:29 PM MST
Nautical Twilight 6:10 AM MST 6:00 PM MST
Astronomical Twilight 5:39 AM MST 6:31 PM MST
Moon No Moon Rise 11:10 AM MST (1/4)
Length of Visible Light 10h 46m
Length of Day
9h 50m
Waning Gibbous, 54% of the Moon is Illuminated
Jan 4
Waning Gibbous
Jan 4
Last Quarter
Jan 11
New
Jan 18
First Quarter
Jan 26
Full

Hourly Weather History & Observations

Time (MST) Temp. Windchill Dew Point Humidity Pressure Visibility Wind Dir Wind Speed Gust Speed Precip Events Conditions
12:12 AM 8.6 °F - 6.8 °F 92% 30.22 in 0.2 mi North - - N/A Fog Light Freezing Fog
12:27 AM 8.6 °F -5.5 °F 6.8 °F 92% 30.22 in 0.5 mi South 10.4 mph - N/A Fog Light Freezing Fog
12:44 AM 8.6 °F -5.5 °F 6.8 °F 92% 30.22 in 1.2 mi South 10.4 mph - N/A   Scattered Clouds
12:47 AM 8.6 °F -4.7 °F 6.8 °F 92% 30.21 in 3.0 mi South 9.2 mph - N/A   Scattered Clouds
12:53 AM 7.0 °F -6.6 °F 6.1 °F 96% 30.34 in 6.0 mi South 9.2 mph - N/A   Scattered Clouds
1:02 AM 6.8 °F -6.9 °F 5.0 °F 92% 30.21 in 0.8 mi South 9.2 mph - N/A   Mist
1:12 AM 6.8 °F -3.5 °F 5.0 °F 92% 30.21 in 0.2 mi SSW 5.8 mph - N/A Fog Light Freezing Fog
1:19 AM 8.6 °F -1.3 °F 6.8 °F 92% 30.21 in 1.0 mi SW 5.8 mph - N/A   Mist
1:21 AM 10.4 °F 2.2 °F 8.6 °F 92% 30.21 in 2.0 mi SW 4.6 mph - N/A   Partly Cloudy
1:28 AM 12.2 °F 6.1 °F 10.4 °F 92% 30.21 in 5.0 mi WSW 3.5 mph - N/A   Partly Cloudy
1:33 AM 10.4 °F 4.0 °F 8.6 °F 92% 30.21 in 1.8 mi SW 3.5 mph - N/A   Clear
1:40 AM 8.6 °F - 6.8 °F 92% 30.21 in 0.8 mi Calm Calm - N/A   Mist
1:50 AM 8.6 °F - 6.8 °F 92% 30.21 in 0.2 mi Calm Calm - N/A Fog Light Freezing Fog
1:53 AM 8.1 °F - 7.0 °F 95% 30.32 in 0.2 mi Calm Calm - N/A Fog Light Freezing Fog
2:23 AM 3.2 °F -9.1 °F 1.4 °F 92% 30.20 in 1.0 mi NNE 6.9 mph - N/A   Mist
2:25 AM 3.2 °F -9.1 °F 1.4 °F 92% 30.20 in 2.5 mi NNE 6.9 mph - N/A   Scattered Clouds
2:32 AM 3.2 °F -9.1 °F -0.4 °F 85% 30.20 in 10.0 mi NNE 6.9 mph - N/A   Partly Cloudy
2:53 AM 1.9 °F -9.2 °F -2.0 °F 83% 30.34 in 10.0 mi NNE 5.8 mph - N/A   Clear
3:53 AM 5.0 °F -2.1 °F -0.9 °F 76% 30.33 in 10.0 mi NE 3.5 mph - N/A   Clear
4:53 AM 9.0 °F - -0.0 °F 67% 30.33 in 10.0 mi Calm Calm - N/A   Clear
6:53 AM 1.0 °F - -5.1 °F 75% 30.40 in 10.0 mi Calm Calm - N/A   Clear
7:53 AM 12.0 °F 5.9 °F 1.9 °F 64% 30.35 in 10.0 mi NW 3.5 mph - N/A   Clear
8:53 AM 15.1 °F - 9.0 °F 77% 30.35 in 10.0 mi Calm Calm - N/A   Clear
9:53 AM 23.0 °F - 10.0 °F 58% 30.31 in 10.0 mi Calm Calm - N/A   Clear
10:53 AM 26.1 °F 17.6 °F 7.0 °F 44% 30.27 in 10.0 mi SSW 8.1 mph - N/A   Clear
11:53 AM 27.0 °F 18.0 °F 5.0 °F 39% 30.22 in 10.0 mi South 9.2 mph - N/A   Clear
12:53 PM 30.9 °F 24.3 °F -2.0 °F 24% 30.17 in 10.0 mi SSW 6.9 mph - N/A   Clear
1:53 PM 33.1 °F 23.9 °F 1.0 °F 26% 30.12 in 10.0 mi SSW 12.7 mph - N/A   Clear
2:53 PM 32.0 °F 22.1 °F 3.9 °F 31% 30.15 in 10.0 mi South 13.8 mph - N/A   Clear
3:53 PM 30.0 °F 19.1 °F 3.9 °F 33% 30.14 in 10.0 mi South 15.0 mph - N/A   Clear
4:53 PM 23.0 °F 11.1 °F 1.9 °F 40% 30.15 in 10.0 mi South 12.7 mph - N/A   Clear
5:53 PM 18.0 °F 4.2 °F 12.9 °F 81% 30.17 in 10.0 mi SSE 13.8 mph - N/A   Clear
6:53 PM 16.0 °F 5.3 °F 9.0 °F 74% 30.23 in 10.0 mi South 8.1 mph - N/A   Clear
7:53 PM 19.0 °F 12.3 °F 3.9 °F 52% 30.15 in 10.0 mi SW 4.6 mph - N/A   Clear
8:53 PM 19.0 °F 13.9 °F -0.0 °F 43% 30.14 in 10.0 mi SSW 3.5 mph - N/A   Clear
9:53 PM 21.0 °F 16.2 °F -0.9 °F 38% 30.09 in 10.0 mi WNW 3.5 mph - N/A   Clear
10:53 PM 21.9 °F 15.7 °F -2.9 °F 34% 30.07 in 10.0 mi WSW 4.6 mph - N/A   Clear
11:53 PM 21.9 °F 15.7 °F -2.9 °F 34% 30.06 in 10.0 mi NW 4.6 mph - N/A   Clear